Retour au catalogue

NUSAT-45

UZMASAT-1

ActifScienceSSO
NORAD 62640·PAYLOAD·🇦🇷 Argentina

Lancé Jan 14, 2025 depuis Vandenberg Space Force Base

Loading…

Prochains Passages (prochaines 24 heures)

TLE

FraisSource: Space-Track

Époque: Sep 14, 2026, 12:39 UTC

1 62640U 25009AH  26257.52755961  .00006793  00000-0  23709-3 0  9995
2 62640  97.3541 337.8663 0002889  52.3830 307.7673 15.29918609 92580

Suivez NUSAT-45 en temps réel avec AllMySat

Download on the App Store